Location: Kapuskasing
(49.3803°N, 82.4001°W)
Time: 11:16:20
(UTC-04:00)

Envisat - Pass Details

Date: 14 March 2026
Orbit: 761 x 762 km, 98.4° (Epoch: 11 April)

Event Time Altitude Azimuth Distance (km) Brightness Sun altitude
Rises 04:21:34 0° 14° (NNE) 3,237 7.0 -31.7°
Reaches altitude 10° 04:23:53 10° 14° (NNE) 2,306 6.1 -31.4°
Enters shadow 04:27:27 47° 14° (NNE) 1,011 3.8 -31.0°
